This demonstration page uses our WeatherBlox Daily Observations layout. Learn more.

Left ArrowRight Arrow

Hourly Observations for July 5, 2018

Temp ( °F °C ) Dew Point ( °F °C ) Humidity (%) Winds ( mph kmh ) Pressure ( in mb ) Visibility ( mi km ) Precip ( " mm )
12:53 am 00:53 Clear 82 27.8 54 12.2 38 38 ESE 7 11 29.94 1014 10 16 0.00 0.00
1:53 am 01:53 Clear 82 27.8 57 13.9 42 42 ESE 13 20 29.95 1014 10 16 0.00 0.00
2:53 am 02:53 Clear 80 26.7 58 14.4 47 47 ESE 10 17 29.96 1015 10 16 0.00 0.00
3:53 am 03:53 Clear 78 25.6 60 15.6 54 54 E 12 19 29.96 1015 10 16 0.00 0.00
4:53 am 04:53 Clear 76 24.4 61 16.1 60 60 E 8 13 29.99 1016 10 16 0.00 0.00
5:53 am 05:53 Clear 75 23.9 62 16.7 64 64 E 8 13 30.00 1016 10 16 0.00 0.00
6:53 am 06:53 Sunny 74 23.3 63 17.2 69 69 E 8 13 30.03 1017 10 16 0.00 0.00
7:53 am 07:53 Sunny 75 23.9 64 17.8 69 69 E 9 15 30.05 1018 10 16 0.00 0.00
8:33 am 08:33 Mostly Sunny 77 25 65 18.3 66 66 ENE 16 26 30.06 1018 10 16 0.00 0.00
8:53 am 08:53 Mostly Cloudy 76 24.4 65 18.3 69 69 ENE 17 28 30.09 1019 10 16 0.00 0.00
9:53 am 09:53 Partly Cloudy 81 27.2 65 18.3 58 58 E 13 20 30.10 1019 10 16 0.00 0.00
10:53 am 10:53 Cloudy 81 27.2 64 17.8 57 57 ENE 16 26 30.11 1020 10 16 0.00 0.00
11:53 am 11:53 Cloudy 82 27.8 63 17.2 53 53 E 13 20 30.12 1020 10 16 0.00 0.00
12:53 pm 12:53 Mostly Cloudy 86 30 63 17.2 46 46 ENE 13 20 30.11 1020 10 16 0.00 0.00
1:53 pm 13:53 Mostly Cloudy 88 31.1 61 16.1 40 40 E 14 22 30.11 1020 10 16 0.00 0.00
2:53 pm 14:53 Mostly Cloudy 90 32.2 61 16.1 38 38 E 17 28 30.09 1019 10 16 0.00 0.00
3:53 pm 15:53 Partly Cloudy 89 31.7 61 16.1 39 39 E 18 30 30.07 1018 10 16 0.00 0.00
4:53 pm 16:53 Mostly Sunny 88 31.1 60 15.6 39 39 ESE 24 39 30.07 1018 10 16 0.00 0.00
5:53 pm 17:53 Mostly Cloudy 87 30.6 59 15 39 39 E 18 30 30.08 1019 10 16 0.00 0.00
6:53 pm 18:53 Mostly Cloudy 86 30 59 15 40 40 E 20 31 30.09 1019 10 16 0.00 0.00
7:53 pm 19:53 Cloudy 85 29.4 59 15 42 42 E 12 19 30.11 1020 10 16 0.00 0.00
8:53 pm 20:53 Cloudy 84 28.9 58 14.4 41 41 E 16 26 30.13 1020 10 16 0.00 0.00
9:26 pm 21:26 Mostly Cloudy 79 26.1 64 17.8 60 60 SSE 15 24 30.09 1019 10 16 0.00 0.00
9:53 pm 21:53 Partly Cloudy 77 25 64 17.8 64 64 SSE 9 15 30.16 1021 10 16 0.00 0.00
10:53 pm 22:53 Mostly Cloudy 76 24.4 65 18.3 69 69 SE 5 7 30.18 1022 10 16 0.00 0.00
11:53 pm 23:53 Cloudy 78 25.6 65 18.3 64 64 E 3 6 30.20 1023 10 16 0.00 0.00

Powered by AerisWeather